FW1417 Weather Reports


Display with metric or nautical units.
time (UTC)temp
F
wind
direction
speed
MPH
gust
MPH
rain 1hr
in
rain 24hr
in
rain mn
in
humidity
%
barometer
mb
20260902070727 69 69 1.0 6.0 0.00 0.21 0.00 87 1017.4
20260902070227 69 54 2.0 8.0 0.00 0.21 0.00 87 1017.4
20260902065725 69 19 3.0 9.0 0.00 0.22 0.00 87 1017.3
20260902065226 69 11 3.0 9.0 0.00 0.22 0.00 87 1017.2
20260902063726 69 62 5.0 10.0 0.00 0.23 0.00 87 1017.4
20260902063226 69 17 4.0 9.0 0.00 0.23 0.00 86 1017.6
20260902062726 69 338 6.0 9.0 0.00 0.23 0.00 86 1017.6
20260902061226 69 71 2.0 3.0 0.00 0.23 0.00 86 1017.6
20260902060726 69 61 2.0 3.0 0.00 0.23 0.00 86 1017.8
20260902055726 69 49 2.0 5.0 0.00 0.23 0.00 86 1017.8
20260902055225 69 71 1.0 3.0 0.00 0.23 0.00 86 1017.7
20260902054726 69 69 1.0 3.0 0.00 0.23 0.00 86 1017.7
20260902054225 69 58 1.0 5.0 0.00 0.23 0.00 86 1017.8
20260902053725 69 16 2.0 5.0 0.00 0.23 0.00 86 1017.7
20260902053226 69 100 2.0 3.0 0.00 0.23 0.00 86 1017.8
20260902052727 69 53 2.0 3.0 0.00 0.23 0.00 86 1017.9
20260902052225 69 69 1.0 3.0 0.00 0.23 0.00 86 1018.0
20260902051725 69 10 1.0 5.0 0.00 0.23 0.00 86 1018.0
20260902051225 69 14 2.0 5.0 0.00 0.23 0.00 86 1017.9
20260902050725 69 65 2.0 3.0 0.00 0.24 0.00 87 1017.9
20260902045726 69 25 1.0 8.0 0.00 0.25 0.00 87 1017.8
20260902045225 69 350 3.0 8.0 0.00 0.25 0.00 87 1017.7
20260902044726 69 28 3.0 8.0 0.00 0.25 0.00 87 1017.5
20260902043726 69 26 3.0 9.0 0.00 0.26 0.00 87 1017.4
20260902043225 70 5 4.0 8.0 0.00 0.26 0.00 87 1017.4
20260902042728 70 346 2.0 8.0 0.00 0.26 0.00 87 1017.5
20260902041229 70 5 1.0 3.0 0.00 0.26 0.00 88 1017.5
20260902040728 70 34 1.0 3.0 0.00 0.26 0.00 88 1017.4
20260902040228 70 41 2.0 3.0 0.00 0.26 0.00 88 1017.4
20260902035727 70 347 0.0 3.0 0.00 0.26 0.26 88 1017.3
20260902035229 70 86 0.0 3.0 0.00 0.26 0.26 88 1017.1
20260902034728 70 328 2.0 3.0 0.00 0.26 0.26 88 1016.8
20260902034228 69 55 1.0 8.0 0.00 0.26 0.26 88 1016.7
20260902033728 69 47 3.0 8.0 0.00 0.26 0.26 88 1016.6
20260902033228 69 12 2.0 9.0 0.00 0.26 0.26 88 1016.6
20260902032729 69 39 2.0 9.0 0.00 0.26 0.26 89 1016.4
20260902032227 69 23 3.0 9.0 0.00 0.26 0.26 89 1016.2
20260902031228 69 87 2.0 7.0 0.00 0.26 0.26 88 1016.3
20260902030728 69 44 3.0 7.0 0.00 0.26 0.26 88 1016.5
20260902030227 69 28 4.0 9.0 0.00 0.26 0.26 88 1016.4
20260902025728 69 0 3.0 9.0 0.00 0.26 0.26 88 1016.5
20260902025227 69 64 3.0 9.0 0.00 0.26 0.26 88 1016.5
20260902024728 69 325 3.0 12.0 0.00 0.26 0.26 87 1016.7
20260902024228 69 256 3.0 12.0 0.00 0.26 0.26 87 1016.6
20260902023728 69 63 6.0 12.0 0.00 0.26 0.26 87 1016.6
20260902023228 70 23 5.0 14.0 0.00 0.26 0.26 87 1016.4
20260902022728 70 96 5.0 14.0 0.00 0.26 0.26 87 1016.4
20260902022228 70 23 6.0 14.0 0.00 0.26 0.26 87 1016.2
20260902021727 70 22 7.0 14.0 0.00 0.26 0.26 87 1016.2
20260902021228 70 5 6.0 13.0 0.00 0.26 0.26 87 1015.9
20260902020728 70 98 5.0 12.0 0.00 0.26 0.26 87 1015.7
20260902020228 70 49 5.0 12.0 0.00 0.26 0.26 87 1015.5
20260902015727 70 24 5.0 14.0 0.00 0.26 0.26 87 1015.5
20260902015228 70 12 6.0 14.0 0.00 0.26 0.26 87 1015.7
20260902014728 70 307 8.0 14.0 0.00 0.26 0.26 87 1015.3
20260902013728 71 320 6.0 12.0 0.00 0.26 0.26 87 1015.2
20260902013227 71 355 6.0 12.0 0.00 0.26 0.26 87 1015.2
20260902012228 71 346 5.0 14.0 0.00 0.26 0.26 87 1015.0
20260902011728 71 15 7.0 14.0 0.00 0.26 0.26 87 1014.8
20260902011228 71 38 6.0 13.0 0.00 0.26 0.26 87 1014.6
20260902010729 71 313 6.0 17.0 0.00 0.26 0.26 87 1014.8
20260902010227 71 5 9.0 17.0 0.00 0.26 0.26 86 1014.3
20260902005727 72 345 7.0 13.0 0.00 0.26 0.26 87 1014.2
20260902005228 72 16 6.0 12.0 0.00 0.26 0.26 87 1014.3
20260902004727 73 5 6.0 13.0 0.00 0.26 0.26 87 1014.4
20260902004228 73 5 5.0 13.0 0.00 0.26 0.26 87 1014.4
20260902003228 73 11 6.0 15.0 0.00 0.26 0.26 87 1014.3
20260902002229 74 334 5.0 12.0 0.01 0.26 0.26 87 1014.1
20260902001728 74 40 4.0 12.0 0.01 0.26 0.26 88 1014.0
20260902001229 74 39 6.0 12.0 0.01 0.26 0.26 87 1014.2
20260902000728 75 40 5.0 12.0 0.01 0.26 0.26 88 1014.1
20260902000228 75 0 5.0 12.0 0.01 0.26 0.26 88 1014.0
20260901235727 76 17 4.0 8.0 0.02 0.26 0.26 88 1014.0
20260901235227 76 9 3.0 8.0 0.02 0.26 0.26 88 1014.0
20260901234227 76 346 5.0 12.0 0.04 0.26 0.26 87 1014.0
20260901233727 77 13 5.0 12.0 0.05 0.26 0.26 87 1013.7
20260901233227 77 350 7.0 12.0 0.05 0.26 0.26 87 1013.7
20260901231728 78 140 1.0 3.0 0.05 0.25 0.25 87 1013.9
20260901231228 78 150 1.0 3.0 0.05 0.25 0.25 86 1013.8
20260901230727 78 135 1.0 3.0 0.07 0.25 0.25 86 1013.6
20260901230228 78 146 0.0 3.0 0.09 0.25 0.25 86 1013.1
20260901225728 78 179 1.0 5.0 0.09 0.24 0.24 85 1013.2
20260901224728 79 216 5.0 9.0 0.08 0.23 0.23 84 1013.1
20260901224227 79 180 2.0 7.0 0.07 0.22 0.22 84 1013.1
20260901223727 79 130 2.0 3.0 0.06 0.21 0.21 84 1013.3
20260901223228 80 78 2.0 6.0 0.06 0.21 0.21 84 1013.1
20260901222727 80 47 1.0 6.0 0.05 0.20 0.20 83 1013.0
20260901222227 80 86 1.0 3.0 0.05 0.20 0.20 83 1012.8
20260901221227 81 109 2.0 3.0 0.05 0.20 0.20 82 1012.7
20260901220729 81 0 1.0 6.0 0.03 0.18 0.18 81 1012.8
20260901220227 81 55 1.0 6.0 0.01 0.16 0.16 80 1012.6
20260901215727 81 68 2.0 6.0 0.00 0.15 0.15 79 1012.7
20260901215227 82 54 1.0 6.0 0.00 0.15 0.15 78 1012.8
20260901214727 82 29 3.0 6.0 0.00 0.15 0.15 78 1012.8
20260901214227 82 13 3.0 7.0 0.00 0.15 0.15 77 1012.8
20260901213727 82 76 3.0 7.0 0.00 0.15 0.15 77 1012.6
20260901213227 82 78 1.0 3.0 0.00 0.15 0.15 76 1012.6
20260901212727 82 155 2.0 3.0 0.00 0.15 0.15 76 1012.6
20260901212227 82 78 2.0 3.0 0.00 0.15 0.15 75 1012.6
20260901211727 83 38 1.0 3.0 0.00 0.15 0.15 76 1012.7
20260901211227 83 9 2.0 3.0 0.00 0.15 0.15 75 1012.7
20260901210727 83 51 2.0 3.0 0.00 0.15 0.15 75 1012.8
20260901210227 83 30 2.0 3.0 0.00 0.15 0.15 74 1012.7
20260901205727 84 79 2.0 3.0 0.00 0.15 0.15 73 1012.7
20260901205227 84 73 1.0 3.0 0.00 0.15 0.15 73 1012.7
20260901204727 84 89 1.0 3.0 0.00 0.15 0.15 73 1012.8
20260901204227 84 88 2.0 3.0 0.00 0.15 0.15 73 1012.7
20260901203727 84 68 1.0 3.0 0.00 0.15 0.15 73 1012.8
20260901203228 84 89 2.0 3.0 0.00 0.15 0.15 73 1012.8
20260901202728 84 69 1.0 3.0 0.00 0.15 0.15 73 1012.8
20260901202228 84 91 1.0 3.0 0.00 0.15 0.15 73 1012.9
20260901201728 85 81 1.0 3.0 0.00 0.15 0.15 73 1012.7
20260901201227 84 90 1.0 3.0 0.00 0.15 0.15 74 1012.8
20260901200227 83 136 0.0 3.0 0.00 0.15 0.15 75 1012.8
20260901195727 83 117 2.0 3.0 0.00 0.15 0.15 75 1012.9
20260901195227 83 150 1.0 3.0 0.00 0.15 0.15 76 1012.8
20260901194727 83 81 2.0 3.0 0.00 0.15 0.15 75 1012.9
20260901194227 83 74 1.0 3.0 0.00 0.15 0.15 76 1012.9
20260901193727 83 83 1.0 3.0 0.00 0.15 0.15 76 1012.9
20260901193227 83 76 2.0 3.0 0.00 0.15 0.15 77 1013.0
20260901192227 82 76 2.0 3.0 0.00 0.15 0.15 76 1013.1
20260901191727 83 79 2.0 3.0 0.00 0.15 0.15 76 1013.2
20260901191227 83 104 1.0 5.0 0.00 0.15 0.15 77 1013.2
20260901190727 83 91 2.0 5.0 0.00 0.15 0.15 76 1013.2
20260901190227 82 102 0.0 3.0 0.00 0.15 0.15 77 1013.2
20260901185727 82 153 1.0 6.0 0.00 0.15 0.15 78 1013.1
20260901185228 81 146 2.0 8.0 0.00 0.15 0.15 79 1013.0
20260901184227 81 153 4.0 8.0 0.00 0.15 0.15 79 1013.1
20260901183726 81 159 5.0 8.0 0.00 0.15 0.15 79 1013.2
20260901183227 81 125 5.0 8.0 0.00 0.15 0.15 79 1013.2
20260901182728 81 152 2.0 5.0 0.00 0.15 0.15 79 1013.2
20260901182228 81 161 2.0 3.0 0.00 0.15 0.15 80 1013.3
20260901181227 81 76 2.0 5.0 0.00 0.15 0.15 81 1013.2
20260901180727 80 137 0.0 7.0 0.00 0.15 0.15 83 1013.2
20260901180227 80 170 2.0 12.0 0.00 0.15 0.15 83 1013.0
20260901175728 79 142 3.0 12.0 0.00 0.15 0.15 84 1013.1
20260901175228 79 203 5.0 12.0 0.00 0.15 0.15 84 1013.0
20260901174727 79 137 4.0 9.0 0.00 0.15 0.15 85 1013.0
20260901174227 78 150 6.0 9.0 0.00 0.15 0.15 85 1012.9
20260901173727 78 219 2.0 9.0 0.00 0.15 0.15 87 1012.8
20260901173227 78 198 3.0 9.0 0.00 0.15 0.15 87 1012.9
20260901172727 77 126 3.0 9.0 0.00 0.15 0.15 88 1013.1
20260901172227 77 192 3.0 8.0 0.00 0.15 0.15 87 1013.6
20260901171227 77 203 2.0 5.0 0.00 0.15 0.15 87 1014.0
20260901170727 77 163 2.0 5.0 0.00 0.15 0.15 87 1014.0
20260901165728 77 174 1.0 6.0 0.01 0.15 0.15 88 1013.9
20260901165228 77 193 2.0 6.0 0.01 0.15 0.15 88 1013.9
20260901164727 76 217 3.0 6.0 0.01 0.15 0.15 88 1013.9
20260901164226 76 192 2.0 6.0 0.01 0.15 0.15 89 1013.8
20260901163726 76 172 2.0 8.0 0.02 0.15 0.15 89 1013.8
20260901162726 76 149 5.0 8.0 0.03 0.15 0.15 88 1013.8
20260901162226 76 163 3.0 7.0 0.03 0.15 0.15 88 1013.9
20260901161726 76 153 4.0 7.0 0.04 0.15 0.15 88 1014.1
20260901161227 76 150 3.0 7.0 0.05 0.15 0.15 88 1014.2
20260901160227 76 101 1.0 3.0 0.06 0.15 0.15 87 1014.6
20260901155226 76 97 0.0 2.0 0.05 0.14 0.14 87 1015.0
20260901154726 76 95 0.0 2.0 0.05 0.14 0.14 87 1015.2
20260901154229 76 95 0.0 2.0 0.05 0.14 0.14 87 1015.3
20260901153727 76 95 0.0 2.0 0.04 0.13 0.13 87 1015.5
20260901153227 76 94 1.0 2.0 0.04 0.13 0.13 87 1015.4
20260901152727 76 94 0.0 1.0 0.03 0.12 0.12 87 1015.4
20260901152226 76 94 0.0 1.0 0.03 0.12 0.12 87 1015.4
20260901151726 76 94 0.0 1.0 0.02 0.11 0.11 87 1015.2
20260901151227 76 98 0.0 1.0 0.01 0.10 0.10 87 1015.1
20260901150727 76 98 0.0 1.0 0.01 0.10 0.10 86 1015.2
20260901150226 76 98 0.0 2.0 0.00 0.09 0.09 86 1015.4
20260901145727 76 98 0.0 2.0 0.00 0.09 0.09 86 1015.4
20260901145227 76 143 1.0 2.0 0.00 0.09 0.09 86 1015.7
20260901144227 76 139 0.0 3.0 0.00 0.09 0.09 87 1015.1
20260901143727 76 78 1.0 3.0 0.00 0.09 0.09 86 1015.2
20260901143227 76 80 1.0 3.0 0.00 0.09 0.09 86 1015.0
20260901142726 76 144 0.0 1.0 0.00 0.09 0.09 87 1014.9
20260901142227 76 145 0.0 1.0 0.00 0.09 0.09 87 1014.9
20260901141727 76 145 0.0 3.0 0.00 0.09 0.09 87 1015.0
20260901141226 76 153 0.0 6.0 0.00 0.09 0.09 87 1014.9
20260901140726 76 153 2.0 6.0 0.00 0.09 0.09 87 1014.9
20260901140227 76 156 2.0 6.0 0.00 0.09 0.09 87 1014.6
20260901135226 76 120 1.0 2.0 0.00 0.09 0.09 88 1014.6
20260901134726 76 168 0.0 3.0 0.00 0.09 0.09 89 1014.8
20260901134227 75 173 1.0 3.0 0.00 0.09 0.09 89 1014.8
20260901133726 75 165 0.0 3.0 0.00 0.09 0.09 89 1014.9
20260901133227 75 163 1.0 3.0 0.00 0.09 0.09 89 1014.9
20260901132726 75 162 0.0 3.0 0.00 0.09 0.09 89 1014.8
20260901131727 75 161 1.0 5.0 0.00 0.09 0.09 89 1015.0
20260901130727 75 187 2.0 6.0 0.00 0.09 0.09 89 1015.0
20260901130226 75 172 2.0 3.0 0.00 0.09 0.09 89 1014.9
20260901125726 75 183 1.0 3.0 0.00 0.09 0.09 89 1014.9
20260901125227 74 161 0.0 3.0 0.00 0.09 0.09 89 1014.8
20260901124226 74 150 1.0 3.0 0.02 0.09 0.09 89 1014.8
20260901123727 74 167 1.0 3.0 0.02 0.09 0.09 89 1014.8
20260901123226 74 206 0.0 5.0 0.03 0.09 0.09 89 1014.9
20260901122726 74 111 2.0 5.0 0.03 0.09 0.09 89 1014.9
20260901122227 74 149 3.0 5.0 0.03 0.09 0.09 89 1014.9
20260901121226 74 143 2.0 5.0 0.03 0.09 0.09 89 1014.8
20260901120726 74 126 0.0 2.0 0.03 0.09 0.09 89 1014.8
20260901120227 74 148 0.0 2.0 0.03 0.09 0.09 89 1014.9
20260901115727 74 148 0.0 2.0 0.03 0.09 0.09 89 1014.9
20260901114226 73 148 0.0 3.0 0.01 0.07 0.07 89 1015.2
20260901113726 73 147 1.0 3.0 0.01 0.07 0.07 89 1015.0
20260901113226 73 150 2.0 3.0 0.00 0.06 0.06 89 1015.1
20260901112727 73 200 1.0 3.0 0.00 0.06 0.06 89 1015.2
20260901112226 73 161 2.0 5.0 0.00 0.06 0.06 89 1015.2
20260901111726 73 158 2.0 5.0 0.00 0.06 0.06 89 1015.3
20260901110726 73 188 1.0 2.0 0.00 0.06 0.06 89 1015.5
20260901110226 73 225 0.0 2.0 0.00 0.06 0.06 89 1015.4
20260901105726 73 225 0.0 2.0 0.00 0.06 0.06 89 1015.4
20260901104227 73 225 0.0 3.0 0.00 0.06 0.06 89 1015.2
20260901103726 73 225 1.0 3.0 0.00 0.06 0.06 89 1015.2
20260901103226 73 207 1.0 5.0 0.00 0.06 0.06 89 1015.1
20260901102726 73 170 2.0 5.0 0.00 0.06 0.06 89 1015.1
20260901102226 73 194 1.0 3.0 0.00 0.06 0.06 89 1015.0
20260901101226 73 206 1.0 5.0 0.00 0.06 0.06 89 1015.0
20260901100726 73 183 2.0 5.0 0.00 0.06 0.06 89 1015.0
20260901095226 73 173 1.0 5.0 0.00 0.06 0.06 89 1015.0
20260901094726 73 255 1.0 5.0 0.00 0.06 0.06 89 1015.0
20260901093227 73 178 1.0 5.0 0.00 0.06 0.06 89 1014.8
20260901092726 73 158 1.0 3.0 0.00 0.06 0.06 89 1014.9
20260901091726 73 155 1.0 7.0 0.00 0.06 0.06 89 1015.0
20260901090726 73 163 1.0 5.0 0.01 0.06 0.06 89 1015.2
20260901085226 73 165 1.0 5.0 0.01 0.06 0.06 88 1015.4
20260901084726 73 160 1.0 5.0 0.01 0.06 0.06 88 1015.3
20260901084226 73 171 1.0 3.0 0.01 0.06 0.06 88 1015.4
20260901083226 73 224 0.0 2.0 0.01 0.06 0.06 88 1015.5
20260901082226 73 224 0.0 2.0 0.01 0.06 0.06 88 1015.4
20260901081726 73 224 0.0 2.0 0.01 0.06 0.06 88 1015.4
20260901081226 73 225 0.0 2.0 0.01 0.06 0.06 88 1015.4
20260901080726 73 225 0.0 2.0 0.00 0.05 0.05 88 1015.6
20260901080225 73 223 0.0 2.0 0.00 0.05 0.05 88 1015.5
20260901075726 73 223 0.0 1.0 0.00 0.05 0.05 88 1015.5
20260901075225 73 223 0.0 2.0 0.01 0.05 0.05 88 1015.6
20260901074726 73 226 0.0 2.0 0.01 0.05 0.05 87 1015.7
20260901074226 73 226 0.0 2.0 0.02 0.05 0.05 87 1015.7
20260901073726 73 226 0.0 2.0 0.02 0.05 0.05 87 1015.8
20260901072726 73 227 1.0 7.0 0.02 0.05 0.05 87 1015.7
20260901072226 73 178 2.0 7.0 0.02 0.05 0.05 87 1015.6
20260901071725 72 182 3.0 6.0 0.02 0.05 0.05 87 1015.6
20260901071226 73 155 3.0 6.0 0.02 0.05 0.05 87 1015.6